Spokane Fairchild, WA
on Monday, January 14, 2013

Monday
Previous Day Next Day
Daily Summary
 ActualAverage (KGEG)Record (KGEG)
Temperature
Mean Temperature °F 29°F  
Max Temperature 23°F 34°F 50°F (1973)
Min Temperature 15°F 25°F -28°F (1888)
Degree Days
Heating Degree Days 46 36  
Month to date heating degree days 514  
Since 1 July heating degree days 3348  
Cooling Degree Days 0 0  
Month to date cooling degree days 0  
Year to date cooling degree days 0  
Moisture
Dew Point 20°F   
Average Humidity 100    
Maximum Humidity 100    
Minimum Humidity 100    
Precipitation
Precipitation 0.01 in 0.06 in 1.02 in (1988)
Month to date precipitation 0.89  
Year to date precipitation 0.89  
Snow
Snow 0.00 in 0.30 in 4.00 in (1976)
Month to date snowfall 6.3  
Since 1 July snowfall 28.4  
Snow Depth 3.00 in   
Wind
Wind Speed 4 mph   
Max Wind Speed 8 mph   
Max Gust Speed mph   
Visibility 9 miles   
Events Snow   

Key: T is trace of precipitation, MM is missing value
Source: NWS Daily Summary
Time(PST)TemperatureDew PointHumidity Pressure Visibility Wind DirectionWind SpeedGust SpeedPrecipitationEvents Conditions
12:58 AM 15.8°F 15.8°F 100% 30.46 in 10.0 miles South 5.8 mph - N/A Snow Light Snow
1:58 AM 17.6°F 17.6°F 100% 30.45 in 10.0 miles South 5.8 mph - N/A Snow Light Snow
2:09 AM 17.6°F 17.6°F 100% 30.33 in 10.0 miles SSE 3.5 mph - N/A Snow Light Snow
2:58 AM 17.6°F 17.6°F 100% 30.46 in 6.0 miles South 4.6 mph - N/A Snow Light Snow
3:25 AM 17.6°F 17.6°F 100% 30.31 in 4.0 miles SSE 3.5 mph - N/A Snow Light Snow
3:58 AM 17.4°F 17.4°F 100% 30.44 in 10.0 miles ESE 3.5 mph - 0.01 in   Overcast
4:20 AM 17.6°F 17.6°F 100% 30.29 in 10.0 miles SSE 3.5 mph - N/A Snow Light Snow
4:30 AM 17.6°F 17.6°F 100% 30.29 in 8.0 miles South 2.3 mph - N/A Snow Light Snow
4:42 AM 17.6°F 17.6°F 100% 30.28 in 10.0 miles South 3.5 mph - N/A Snow Light Snow
4:58 AM 17.8°F 17.8°F 100% 30.28 in 10.0 miles South 5.8 mph - 0.00 in Snow Light Snow
5:03 AM 17.6°F 17.6°F 100% 30.28 in 10.0 miles SE 2.3 mph - N/A Snow Light Snow
5:29 AM 17.6°F 17.6°F 100% 30.28 in 10.0 miles SE 2.3 mph - N/A   Overcast
5:31 AM 17.6°F 17.6°F 100% 30.28 in 10.0 miles South 3.5 mph - N/A Snow Light Snow
5:34 AM 17.6°F 17.6°F 100% 30.28 in 10.0 miles South 4.6 mph - N/A Snow Light Snow
5:47 AM 17.6°F 17.6°F 100% 30.29 in 10.0 miles South 3.5 mph - N/A Snow Light Snow
5:58 AM 18.1°F 18.1°F 100% 30.43 in 10.0 miles South 4.6 mph - 0.00 in Snow Light Snow
6:18 AM 17.6°F 17.6°F 100% 30.28 in 10.0 miles South 3.5 mph - N/A Snow Light Snow
6:33 AM 17.6°F 17.6°F 100% 30.28 in 5.0 miles SSE 3.5 mph - N/A Snow Light Snow
6:58 AM 18.7°F 18.7°F 100% 30.28 in 5.0 miles SE 4.6 mph - 0.00 in Snow Light Snow
7:18 AM 19.4°F 19.4°F 100% 30.29 in 10.0 miles SE 3.5 mph - N/A Snow Light Snow
7:41 AM 19.4°F 19.4°F 100% 30.27 in 10.0 miles SSE 6.9 mph - N/A Snow Light Snow
7:49 AM 19.4°F 19.4°F 100% 30.27 in 10.0 miles SSE 5.8 mph - N/A   Light Freezing Drizzle
7:58 AM 19.0°F 19.0°F 100% 30.40 in 10.0 miles SSE 4.6 mph - 0.00 in   Light Freezing Drizzle
7:59 AM 19.4°F 19.4°F 100% 30.40 in 6.0 miles SE 5.8 mph - N/A   Light Freezing Drizzle
8:00 AM 19.4°F 19.4°F 100% 30.27 in 10.0 miles SSE 5.8 mph - N/A   Light Freezing Drizzle
8:05 AM 19.4°F 19.4°F 100% 30.28 in 10.0 miles SSE 5.8 mph - N/A   Light Freezing Drizzle
8:11 AM 19.4°F 19.4°F 100% 30.28 in 6.0 miles SSE 5.8 mph - N/A   Light Freezing Drizzle
8:21 AM 19.4°F 19.4°F 100% 30.28 in 3.0 miles ESE 6.9 mph - N/A   Light Freezing Drizzle
8:55 AM 19.4°F 19.4°F 100% 30.26 in 4.0 miles SE 8.1 mph - 0.00 in   Light Freezing Drizzle
9:09 AM 19.4°F 19.4°F 100% 30.26 in 4.0 miles SE 6.9 mph - N/A   Light Freezing Drizzle
9:55 AM 19.4°F 19.4°F 100% 30.40 in 10.0 miles SE 8.1 mph - 0.00 in Snow Light Snow
10:18 AM 19.4°F 19.4°F 100% 30.27 in 10.0 miles SE 5.8 mph - N/A   Overcast
10:55 AM 20.8°F 20.8°F 100% 30.26 in 10.0 miles SSE 5.8 mph - N/A   Overcast
11:55 AM 21.2°F 21.2°F 100% 30.24 in 10.0 miles SE 5.8 mph - N/A   Overcast
12:52 PM 21.2°F 21.2°F 100% 30.25 in 10.0 miles SE 4.6 mph - N/A   Overcast
12:58 PM 21.9°F 21.9°F 100% 30.37 in 10.0 miles SE 4.6 mph - N/A   Overcast
1:08 PM 21.2°F 21.2°F 100% 30.25 in 10.0 miles SE 4.6 mph - N/A   Overcast
1:13 PM 23.0°F 23.0°F 100% 30.25 in 10.0 miles SE 5.8 mph - N/A   Overcast
1:26 PM 23.0°F 23.0°F 100% 30.25 in 10.0 miles ESE 5.8 mph - N/A   Overcast
1:41 PM 23.0°F 23.0°F 100% 30.26 in 10.0 miles North - - N/A   Overcast
1:58 PM 22.5°F 22.5°F 100% 30.27 in 10.0 miles East 5.8 mph - N/A   Overcast
2:55 PM 22.8°F 22.8°F 100% 30.28 in 10.0 miles East 3.5 mph - N/A   Overcast
3:55 PM 23.0°F 23.0°F 100% 30.28 in 10.0 miles East 3.5 mph - N/A   Overcast
4:52 PM 23.0°F 23.0°F 100% 30.29 in 10.0 miles ESE 2.3 mph - N/A   Overcast
4:55 PM 23.2°F 23.2°F 100% 30.41 in 10.0 miles ESE 2.3 mph - N/A   Overcast
5:55 PM 23.2°F 23.2°F 100% 30.42 in 10.0 miles SE 2.3 mph - N/A   Overcast
6:23 PM 23.0°F 23.0°F 100% 30.32 in 10.0 miles ESE 2.3 mph - N/A   Overcast
6:43 PM 23.0°F 23.0°F 100% 30.33 in 10.0 miles Variable 3.5 mph - N/A   Overcast
6:56 PM 23.0°F 23.0°F 100% 30.44 in 10.0 miles SSE 3.5 mph - N/A   Overcast
6:58 PM 23.0°F 23.0°F 100% 30.32 in 10.0 miles SE 4.6 mph - N/A   Overcast
7:22 PM 23.0°F 23.0°F 100% 30.33 in 10.0 miles SSE 4.6 mph - N/A   Overcast
7:58 PM 23.2°F 23.2°F 100% 30.46 in 10.0 miles ESE 3.5 mph - N/A   Overcast
8:58 PM 22.8°F 22.8°F 100% 30.48 in 10.0 miles NNE 4.6 mph - N/A   Overcast
9:01 PM 23.0°F 23.0°F 100% 30.36 in 10.0 miles Variable 3.5 mph - N/A   Overcast
9:17 PM 23.0°F 23.0°F 100% 30.36 in 10.0 miles NNE 5.8 mph - N/A   Overcast
9:24 PM 23.0°F 23.0°F 100% 30.37 in 9.0 miles NNE 5.8 mph - N/A   Overcast
9:33 PM 23.0°F 23.0°F 100% 30.36 in 8.0 miles East 3.5 mph - N/A   Overcast
9:37 PM 23.0°F 23.0°F 100% 30.36 in 8.0 miles East 3.5 mph - N/A   Overcast
9:47 PM 21.2°F 21.2°F 100% 30.35 in 8.0 miles ENE 1.2 mph - N/A   Mostly Cloudy
9:58 PM 20.8°F 20.8°F 100% 30.48 in 7.0 miles NE 1.2 mph - 0.00 in   Mostly Cloudy
10:58 PM 19.2°F 19.2°F 100% 30.50 in 7.0 miles ENE 3.5 mph - N/A   Overcast
11:39 PM 17.6°F 17.6°F 100% 30.38 in 5.0 miles ENE 1.2 mph - N/A   Mostly Cloudy
11:49 PM 15.8°F 15.8°F 100% 30.38 in 1.5 miles East 1.2 mph - N/A   Scattered Clouds
11:54 PM 15.8°F 15.8°F 100% 30.38 in 0.8 miles Calm Calm - N/A   Scattered Clouds
11:58 PM 16.3°F 16.3°F 100% 30.52 in 0.8 miles East 1.2 mph - N/A   Partly Cloudy
Moon Phase
Jan. 14 Jan. 18 Jan. 26 Feb. 03 Feb. 10
Sunrise:07:34 AM (PST) Moon Rise:08:53 AM (PST)1/14
Sunset:04:25 PM (PST) Moon Set:08:36 PM (PST)1/14

Copyright © 2014 The Weather Underground, Inc.